Weather History for Falfurrias, TX

Change the Weather History Date:

Friday, February 22, 2013

  Actual Average (KNQI) Record (KNQI)
Temperature  
Mean Temperature 71 °F -  
Max Temperature 78 °F 70 °F 73 °F (2014)
Min Temperature 64 °F 50 °F 48 °F (2014)
Cooling Degree Days 6    
Growing Degree Days 21 (Base 50)    
Moisture  
Dew Point 48 °F    
Average Humidity 47    
Maximum Humidity 64    
Minimum Humidity 25    
Precipitation  
Precipitation 0.00 in - - ()
Sea Level Pressure  
Sea Level Pressure 29.86 in    
Wind  
Wind Speed 8 mph (NE)    
Max Wind Speed 20 mph    
Max Gust Speed 28 mph    
Visibility 10 miles    
Events      
Averages and records for this station are not official NWS values.
T = Trace of Precipitation, MM = Missing Value Source: NWS Daily Summary

Daily Weather History Graph

Daily Weather History Graph

Search for Another Location

Airport:

Trip Planner

Search our weather history database for the weather conditions in past years. The results will help you decide how hot, cold, wet, or windy it might be!

Date:

Astronomy

Feb. 22, 2013 Rise Set
Actual Time 7:02 AM CST 6:29 PM CST
Civil Twilight 6:39 AM CST 6:52 PM CST
Nautical Twilight 6:12 AM CST 7:19 PM CST
Astronomical Twilight 5:45 AM CST 7:47 PM CST
Moon 3:51 PM CST (2/22) 4:38 AM CST (2/22)
Length of Visible Light 12h 13m
Length of Day
11h 26m
Waxing Gibbous, 90% of the Moon is Illuminated
Feb 22
Waxing Gibbous
Feb 25
Full
Mar 4
Last Quarter
Mar 11
New
Mar 19
First Quarter

Hourly Weather History & Observations

Time (CST) Temp. Dew Point Humidity Pressure Visibility Wind Dir Wind Speed Gust Speed Precip Events Conditions
12:15 AM 67.6 °F 51.6 °F 56% 29.81 in 10.0 mi NNE 4.6 mph - N/A   Clear
12:35 AM 67.5 °F 51.8 °F 57% 29.80 in 10.0 mi NNE 3.5 mph - N/A   Clear
12:55 AM 67.8 °F 51.8 °F 56% 29.80 in 10.0 mi North 3.5 mph - N/A   Clear
1:15 AM 66.9 °F 51.8 °F 58% 29.82 in 10.0 mi Calm Calm - N/A   Clear
1:35 AM 65.8 °F 51.8 °F 60% 29.84 in 10.0 mi Calm Calm - N/A   Clear
1:55 AM 64.9 °F 51.8 °F 62% 29.84 in 10.0 mi WNW 3.5 mph - N/A   Clear
2:15 AM 65.1 °F 52.0 °F 62% 29.83 in 10.0 mi WNW 3.5 mph - N/A   Clear
2:35 AM 65.5 °F 52.0 °F 62% 29.82 in 10.0 mi NW 5.8 mph - N/A   Clear
3:15 AM 65.3 °F 51.4 °F 61% 29.80 in 10.0 mi North 3.5 mph - N/A   Clear
3:35 AM 65.7 °F 51.8 °F 61% 29.80 in 10.0 mi North 4.6 mph - N/A   Clear
3:55 AM 65.5 °F 51.8 °F 61% 29.80 in 10.0 mi North 5.8 mph - N/A   Clear
4:15 AM 65.5 °F 52.0 °F 62% 29.80 in 10.0 mi North 4.6 mph - N/A   Clear
4:35 AM 65.5 °F 51.8 °F 61% 29.80 in 10.0 mi North 4.6 mph - N/A   Clear
4:55 AM 65.3 °F 51.3 °F 60% 29.80 in 10.0 mi North 6.9 mph - N/A   Clear
5:15 AM 65.3 °F 51.3 °F 60% 29.80 in 10.0 mi North 8.1 mph - N/A   Clear
5:35 AM 65.3 °F 51.8 °F 62% 29.81 in 10.0 mi North 6.9 mph - N/A   Clear
5:55 AM 65.5 °F 52.5 °F 63% 29.82 in 10.0 mi NNE 5.8 mph - N/A   Clear
6:15 AM 65.7 °F 53.1 °F 64% 29.83 in 10.0 mi North 6.9 mph - N/A   Clear
6:35 AM 66.2 °F 53.6 °F 64% 29.83 in 10.0 mi NNE 6.9 mph - N/A   Clear
6:55 AM 66.2 °F 53.8 °F 64% 29.83 in 10.0 mi NNE 5.8 mph - N/A   Mostly Cloudy
7:15 AM 66.7 °F 54.1 °F 64% 29.84 in 10.0 mi NNE 8.1 mph - N/A   Overcast
7:35 AM 67.1 °F 54.5 °F 64% 29.85 in 10.0 mi NNE 8.1 mph - N/A   Overcast
7:55 AM 67.5 °F 54.7 °F 64% 29.86 in 10.0 mi North 9.2 mph - N/A   Overcast
8:15 AM 68.2 °F 54.5 °F 62% 29.87 in 10.0 mi NNE 10.4 mph - N/A   Overcast
8:35 AM 69.8 °F 53.8 °F 57% 29.88 in 10.0 mi NNE 11.5 mph - N/A   Overcast
8:55 AM 69.8 °F 52.7 °F 54% 29.88 in 10.0 mi NE 11.5 mph - N/A   Mostly Cloudy
9:15 AM 70.3 °F 50.4 °F 49% 29.90 in 10.0 mi NNE 10.4 mph 19.6 mph N/A   Mostly Cloudy
9:35 AM 70.7 °F 49.8 °F 48% 29.90 in 10.0 mi NE 16.1 mph 21.9 mph N/A   Mostly Cloudy
9:55 AM 71.2 °F 49.3 °F 46% 29.91 in 10.0 mi NE 13.8 mph - N/A   Mostly Cloudy
10:15 AM 72.0 °F 48.4 °F 43% 29.91 in 10.0 mi NE 11.5 mph - N/A   Mostly Cloudy
10:35 AM 73.2 °F 47.3 °F 40% 29.91 in 10.0 mi NE 12.7 mph 18.4 mph N/A   Overcast
11:15 AM 76.3 °F 41.0 °F 28% 29.91 in 10.0 mi ENE 16.1 mph 27.6 mph N/A   Mostly Cloudy
11:35 AM 77.4 °F 41.0 °F 27% 29.90 in 10.0 mi NE 15.0 mph 25.3 mph N/A   Overcast
11:55 AM 77.2 °F 39.9 °F 26% 29.90 in 10.0 mi ENE 17.3 mph 26.5 mph N/A   Mostly Cloudy
12:15 PM 78.3 °F 39.2 °F 25% 29.90 in 10.0 mi ENE 19.6 mph 26.5 mph N/A   Mostly Cloudy
12:35 PM 77.4 °F 38.8 °F 25% 29.88 in 10.0 mi NE 15.0 mph 25.3 mph N/A   Mostly Cloudy
12:55 PM 78.8 °F 41.0 °F 26% 29.88 in 10.0 mi NE 18.4 mph 27.6 mph N/A   Overcast
1:15 PM 77.4 °F 41.5 °F 28% 29.88 in 10.0 mi NE 16.1 mph 23.0 mph N/A   Overcast
1:35 PM 77.0 °F 41.0 °F 28% 29.87 in 10.0 mi NE 17.3 mph 21.9 mph N/A   Overcast
1:55 PM 77.5 °F 41.4 °F 27% 29.86 in 10.0 mi ENE 13.8 mph 23.0 mph N/A   Overcast
2:15 PM 77.7 °F 40.8 °F 27% 29.85 in 10.0 mi NE 15.0 mph 19.6 mph N/A   Overcast
2:35 PM 77.0 °F 41.4 °F 28% 29.85 in 10.0 mi NE 13.8 mph 20.7 mph N/A   Overcast
3:15 PM 78.6 °F 43.9 °F 29% 29.83 in 10.0 mi NE 13.8 mph 23.0 mph N/A   Overcast
3:35 PM 78.1 °F 45.5 °F 32% 29.83 in 10.0 mi ENE 16.1 mph 21.9 mph N/A   Mostly Cloudy
3:55 PM 77.9 °F 45.1 °F 31% 29.82 in 10.0 mi ENE 16.1 mph 21.9 mph N/A   Mostly Cloudy
4:15 PM 78.6 °F 45.1 °F 31% 29.81 in 10.0 mi ENE 19.6 mph 24.2 mph N/A   Scattered Clouds
4:35 PM 77.4 °F 45.5 °F 32% 29.82 in 10.0 mi ENE 17.3 mph 24.2 mph N/A   Mostly Cloudy
4:55 PM 76.3 °F 44.8 °F 33% 29.83 in 10.0 mi ENE 15.0 mph 20.7 mph N/A   Overcast
5:15 PM 75.9 °F 45.7 °F 34% 29.83 in 10.0 mi ENE 15.0 mph 20.7 mph N/A   Overcast
5:35 PM 75.4 °F 46.4 °F 36% 29.83 in 10.0 mi ENE 12.7 mph - N/A   Overcast
5:55 PM 74.7 °F 46.4 °F 37% 29.83 in 10.0 mi NE 11.5 mph 19.6 mph N/A   Overcast
6:15 PM 74.1 °F 46.4 °F 37% 29.83 in 10.0 mi ENE 10.4 mph - N/A   Overcast
6:35 PM 73.4 °F 48.0 °F 41% 29.83 in 10.0 mi ENE 16.1 mph 19.6 mph N/A   Mostly Cloudy
6:55 PM 73.4 °F 49.1 °F 42% 29.85 in 10.0 mi ENE 13.8 mph 20.7 mph N/A   Overcast
7:15 PM 72.9 °F 48.2 °F 42% 29.86 in 10.0 mi ENE 12.7 mph - N/A   Overcast
7:35 PM 72.7 °F 48.0 °F 42% 29.88 in 10.0 mi NE 11.5 mph - N/A   Overcast
7:55 PM 72.1 °F 48.2 °F 43% 29.88 in 10.0 mi NE 12.7 mph 17.3 mph N/A   Overcast
8:15 PM 71.8 °F 48.4 °F 43% 29.89 in 10.0 mi NE 10.4 mph - N/A   Overcast
8:35 PM 71.6 °F 49.1 °F 45% 29.89 in 10.0 mi NE 11.5 mph - N/A   Overcast
8:55 PM 70.7 °F 49.3 °F 47% 29.90 in 10.0 mi ENE 9.2 mph - N/A   Overcast
9:15 PM 68.9 °F 49.5 °F 50% 29.90 in 10.0 mi NE 6.9 mph - N/A   Scattered Clouds
9:35 PM 67.8 °F 49.5 °F 52% 29.91 in 10.0 mi NE 4.6 mph - N/A   Clear
9:55 PM 67.5 °F 49.6 °F 53% 29.92 in 10.0 mi NNE 6.9 mph - N/A   Clear
10:15 PM 68.4 °F 50.0 °F 52% 29.93 in 10.0 mi NE 6.9 mph - N/A   Mostly Cloudy
10:35 PM 68.9 °F 50.0 °F 51% 29.93 in 10.0 mi NE 6.9 mph - N/A   Overcast
10:55 PM 68.4 °F 49.5 °F 51% 29.93 in 10.0 mi NNE 9.2 mph - N/A   Overcast
11:15 PM 68.0 °F 49.1 °F 51% 29.92 in 10.0 mi NNE 15.0 mph - N/A   Overcast
11:35 PM 67.5 °F 49.1 °F 52% 29.94 in 10.0 mi NNE 6.9 mph - N/A   Overcast
11:55 PM 67.5 °F 49.1 °F 52% 29.94 in 10.0 mi NE 10.4 mph - N/A   Overcast